Location: Allos
(44.2333°N, 6.6333°E)
Time: 04:35:47
(UTC+00:00)

Cosmos 1867 - Pass Details

Date: 01 December 2020
Orbit: 776 x 800 km, 65.0° (Epoch: 24 January)

Event Time Altitude Azimuth Distance (km) Brightness Sun altitude
Rises 16:30:25 0° 226° (SW) 3,266 8.4 -6.3°
Reaches altitude 10° 16:32:52 10° 231° (SW) 2,345 7.6 -6.7°
Maximum altitude 16:38:09 55° 309° (NW) 947 4.2 -7.6°
Drops below altitude 10° 16:43:31 10° 28° (NNE) 2,374 5.6 -8.5°
Enters shadow 16:44:56 - 31° (NNE) 2,899 6.0 -8.7°
